Regional Weather Roundup
Issued by NWS Northern Indiana

Home | Current Version | Previous Version | Text Only | Print | Product List | Glossary On
Versions: 1 2 3 4 5 6 7 8 9 10 11 12 13 14 15 16 17 18 19 20 21 22 23 24 25 26 27 28 29 30 31 32 33 34 35 36 37 38 39 40 41 42 43 44 45 46 47 48 49 50
000
ASUS43 KIWX 200810
RWRIWX

KIWX WEATHER ROUNDUP
NATIONAL WEATHER SERVICE NORTHERN INDIANA
400 AM EDT SAT SEP 20 2014

NOTE: "FAIR" INDICATES FEW OR NO CLOUDS BELOW 12,000 FEET WITH NO
SIGNIFICANT WEATHER AND/OR OBSTRUCTIONS TO VISIBILITY.

* THESE STATIONS ARE NOT UNDER NWS QUALITY CONTROL. THEY ALSO MAY NOT
  REPORT WEATHER SUCH AS PRECIPITATION OR FOG.

INZ001>027-200900-
NORTHERN INDIANA

CITY           SKY/WX    TMP DP  RH WIND       PRES   REMARKS
GARY*          CLEAR     62  52  68 S6        29.96F
VALPARAISO     CLEAR     57  50  77 S7        29.99R
MICHIGAN CITY* CLEAR     57  46  67 S7        29.97F
LAPORTE*       PTCLDY    53  49  87 S5        29.99S
KNOX*          CLEAR     55  49  81 S5        29.99R
SOUTH BEND     CLEAR     58  49  72 S7        29.99R
GOSHEN         CLEAR     56  48  74 SW6       30.00R
MONTICELLO*    CLEAR     58  51  79 S7        29.99R
LOGANSPORT*    CLEAR     54  48  82 S7        30.01R
ROCHESTER*     CLEAR     61  52  72 S7        30.00S
WARSAW*        CLEAR     55  50  82 S5        30.00R
ANGOLA*        CLEAR     54  46  76 S3        30.00S
FORT WAYNE     PTCLDY    52  48  86 SW7       30.02S
HUNTINGTON*    CLEAR     55  49  82 S3        30.01R
PERU/GRISSOM   CLEAR     54  54 100 S6        30.01R
MARION*        CLEAR     53  48  83 S6        30.03R

$$
INZ028>050-200900-
CENTRAL INDIANA

CITY           SKY/WX    TMP DP  RH WIND       PRES   REMARKS
LAFAYETTE      CLEAR     56  51  84 CALM      30.00R
KOKOMO*        CLEAR     55  48  76 S9        30.02R
MUNCIE*        CLEAR     59  50  72 S8        30.02F
INDIANAPOLIS   CLEAR     56  51  84 S5        30.01F

$$
MIZ043>046-050>051-056>058-064>065-071>073-077>080-200900-
SOUTHWEST LOWER MICHIGAN

CITY           SKY/WX    TMP DP  RH WIND       PRES   REMARKS
BATTLE CREEK   PTCLDY    56  47  71 S10       29.97F
BENTON HARBOR  CLOUDY    60  49  66 S9        29.95S
COLDWATER*     CLEAR     56  49  77 SW5       29.99S
HILLSDALE*     CLEAR     55  49  81 S6        30.00R
HOLLAND        PTCLDY    59  50  72 S8        29.91F
GRAND RAPIDS   PTCLDY    61  49  64 SW9       29.94S
KALAMAZOO      MOCLDY    56  49  77 S9        29.97S
STURGIS*       CLEAR     54  48  82 S6        29.99R
THREE RIVERS*  FAIR      51  48  87 S3        29.99S

$$
OHZ001>008-015>018-024>025-200900-
NORTHWEST OHIO

CITY           SKY/WX    TMP DP  RH WIND       PRES   REMARKS
WAUSEON*       FAIR      50  46  87 S6        30.01S
DEFIANCE       CLEAR     53  46  77 S5        30.01F
FINDLAY        PTCLDY    51  46  83 S9        30.02F
TOLEDO EXPRESS CLEAR     51  47  86 S3        30.01F
TOLEDO METCALF PTCLDY    52  45  77 S6        30.01F
LIMA           PTCLDY    57  49  74 S8        30.03F

$$
&&



USA.gov is the U.S. government's official web portal to all federal, state and local government web resources and services.